Back to catalog

STARLINK-37228

AliveCommunicationsVLEO
NORAD 68570·PAYLOAD·🇺🇸 United States

Launched Apr 2, 2026 from Cape Canaveral Space Force Station

Loading…

Next Passes (next 24 hours)

TLE

FreshSource: CelesTrak SupGP

Epoch: Sep 15, 2026, 03:43 UTC

1 68570C 26070AE  26258.15534722 -.00077322  00000+0 -22848-2 0  2589
2 68570  53.1589 199.0200 0001399  89.0507 230.7605 15.34425392    13

Track STARLINK-37228 in real time with AllMySat

Download on the App Store